Location: Unspecified
(35.7250°N, 0.0000°E)
Time: 20:44:09
(UTC+00:00)

Envisat - Visible Passes

Search period start: 19 May 2019 00:00
Search period end: 29 May 2019 00:00
Orbit: 764 x 766 km, 98.2° (Epoch: 19 May)

Date Brightness Start Highest point End Pass type
(mag) Time Alt. Az. Time Alt. Az. Time Alt. Az.
19 May 5.2 19:25:06 10° SSW 19:29:19 26° W 19:33:34 10° NW visible
21 May 5.8 19:52:22 10° SW 19:55:03 14° W 19:57:45 10° WNW visible
24 May 5.6 19:40:13 10° SW 19:43:43 19° W 19:47:14 10° NW visible
